• In Hungary
  • List of Countries
  • For 7 days
  • Water Temperature
  • Satellite Maps
  • Weather Map
  • News
  • Weather Widgets
  • user-avatar
    Login

    Hourly Weather Zheshart

    Today, 22 July, Sunday

    Time Temperature Precipitation Wind Pressure Humidity
    00:00 +16°C° 0 mm 1 mps 757 mmHg 74%
    01:00 +15°C° 0 mm 1 mps 757 mmHg 76%
    02:00 +15°C° 0 mm 1 mps 757 mmHg 78%
    03:00 +14°C° 0 mm 1 mps 757 mmHg 80%
    04:00 +16°C° 0 mm 1 mps 757 mmHg 75%
    05:00 +17°C° 0 mm 2 mps 757 mmHg 70%
    06:00 +19°C° 0 mm 2 mps 757 mmHg 64%
    07:00 +21°C° 0 mm 2 mps 757 mmHg 57%
    08:00 +23°C° 0 mm 2 mps 758 mmHg 49%
    09:00 +25°C° 0 mm 3 mps 758 mmHg 41%
    10:00 +26°C° 0 mm 3 mps 757 mmHg 38%
    11:00 +27°C° 0 mm 3 mps 757 mmHg 36%
    12:00 +28°C° 0 mm 3 mps 757 mmHg 33%
    13:00 +28°C° 0 mm 3 mps 756 mmHg 33%
    14:00 +28°C° 0 mm 3 mps 756 mmHg 32%
    15:00 +28°C° 0 mm 3 mps 756 mmHg 31%
    16:00 +28°C° 0 mm 2 mps 756 mmHg 34%
    17:00 +27°C° 0 mm 2 mps 756 mmHg 38%
    18:00 +27°C° 0 mm 2 mps 756 mmHg 41%
    19:00 +24°C° 0 mm 2 mps 756 mmHg 48%
    20:00 +21°C° 0 mm 2 mps 756 mmHg 55%
    21:00 +18°C° 0 mm 2 mps 756 mmHg 62%
    22:00 +18°C° 0 mm 1 mps 756 mmHg 65%
    23:00 +16°C° 0 mm 1 mps 757 mmHg 67%

    Tomorrow, 23 July, Monday

    Time Temperature Precipitation Wind Pressure Humidity
    00:00 +15°C° 0 mm 1 mps 757 mmHg 70%
    01:00 +15°C° 0 mm 1 mps 757 mmHg 72%
    02:00 +14°C° 0 mm 1 mps 757 mmHg 74%
    03:00 +13°C° 0 mm 1 mps 757 mmHg 76%
    04:00 +15°C° 0 mm 1 mps 757 mmHg 71%
    05:00 +16°C° 0 mm 1 mps 758 mmHg 67%
    06:00 +19°C° 0 mm 1 mps 758 mmHg 62%
    07:00 +21°C° 0 mm 1 mps 758 mmHg 55%
    08:00 +23°C° 0 mm 1 mps 758 mmHg 49%
    09:00 +25°C° 0 mm 2 mps 758 mmHg 42%
    10:00 +26°C° 0 mm 2 mps 757 mmHg 38%
    11:00 +27°C° 0 mm 2 mps 757 mmHg 35%
    12:00 +28°C° 0 mm 2 mps 757 mmHg 32%
    13:00 +28°C° 0 mm 2 mps 757 mmHg 31%
    14:00 +28°C° 0 mm 2 mps 756 mmHg 31%
    15:00 +29°C° 0 mm 2 mps 756 mmHg 30%
    16:00 +28°C° 0 mm 2 mps 756 mmHg 34%
    17:00 +28°C° 0 mm 2 mps 756 mmHg 38%
    18:00 +27°C° 0 mm 1 mps 756 mmHg 42%
    19:00 +25°C° 0 mm 1 mps 756 mmHg 49%
    20:00 +22°C° 0 mm 1 mps 756 mmHg 56%
    21:00 +19°C° 0 mm 1 mps 757 mmHg 62%
    22:00 +19°C° 0 mm 1 mps 757 mmHg 65%
    23:00 +18°C° 0 mm 1 mps 757 mmHg 68%

    Day after tomorrow, 24 July, Tuesday

    Time Temperature Precipitation Wind Pressure Humidity
    00:00 +16°C° 0 mm 1 mps 757 mmHg 71%
    01:00 +15°C° 0 mm 1 mps 757 mmHg 74%
    02:00 +15°C° 0 mm 1 mps 758 mmHg 76%
    03:00 +14°C° 0 mm 1 mps 758 mmHg 79%
    04:00 +16°C° 0 mm 1 mps 758 mmHg 73%
    05:00 +17°C° 0 mm 0 mps 758 mmHg 68%
    06:00 +19°C° 0 mm 0 mps 758 mmHg 62%
    07:00 +23°C° 0 mm 1 mps 758 mmHg 55%
    08:00 +25°C° 0 mm 1 mps 758 mmHg 49%
    09:00 +27°C° 0 mm 1 mps 758 mmHg 42%
    10:00 +28°C° 0 mm 2 mps 758 mmHg 38%
    11:00 +29°C° 0 mm 2 mps 758 mmHg 35%
    12:00 +30°C° 0 mm 2 mps 758 mmHg 31%
    13:00 +30°C° 0 mm 2 mps 758 mmHg 31%
    14:00 +30°C° 0 mm 2 mps 757 mmHg 30%
    15:00 +31°C° 0 mm 2 mps 757 mmHg 29%
    16:00 +30°C° 0 mm 2 mps 757 mmHg 34%
    17:00 +29°C° 0 mm 1 mps 757 mmHg 38%
    18:00 +29°C° 0 mm 1 mps 757 mmHg 42%
    19:00 +26°C° 0 mm 1 mps 757 mmHg 49%
    20:00 +24°C° 0 mm 1 mps 758 mmHg 55%
    21:00 +21°C° 0 mm 1 mps 758 mmHg 62%
    22:00 +20°C° 0 mm 1 mps 758 mmHg 65%
    23:00 +19°C° 0 mm 1 mps 758 mmHg 69%

    25 July, Wednesday

    Time Temperature Precipitation Wind Pressure Humidity
    00:00 +19°C° 0 mm 1 mps 758 mmHg 72%
    01:00 +18°C° 0 mm 1 mps 759 mmHg 75%
    02:00 +18°C° 0 mm 1 mps 759 mmHg 77%
    03:00 +16°C° 0 mm 1 mps 759 mmHg 80%
    04:00 +19°C° 0 mm 1 mps 759 mmHg 76%
    05:00 +20°C° 0 mm 1 mps 759 mmHg 71%
    06:00 +22°C° 0 mm 1 mps 759 mmHg 67%
    07:00 +23°C° 0 mm 1 mps 760 mmHg 60%
    08:00 +25°C° 0 mm 1 mps 760 mmHg 53%
    09:00 +27°C° 0 mm 2 mps 760 mmHg 46%
    10:00 +28°C° 0 mm 2 mps 760 mmHg 43%
    11:00 +29°C° 0 mm 2 mps 760 mmHg 40%
    12:00 +29°C° 0 mm 2 mps 759 mmHg 37%
    13:00 +29°C° 0 mm 2 mps 759 mmHg 39%
    14:00 +29°C° 0 mm 3 mps 759 mmHg 42%
    15:00 +28°C° 0 mm 3 mps 759 mmHg 44%
    16:00 +27°C° 0 mm 2 mps 759 mmHg 52%
    17:00 +26°C° 0 mm 2 mps 759 mmHg 61%
    18:00 +24°C° 0 mm 2 mps 759 mmHg 69%
    19:00 +23°C° 0 mm 1 mps 759 mmHg 74%
    20:00 +22°C° 0 mm 1 mps 759 mmHg 79%
    21:00 +20°C° 0 mm 1 mps 759 mmHg 85%
    22:00 +20°C° 0 mm 1 mps 759 mmHg 86%
    23:00 +20°C° 0 mm 1 mps 759 mmHg 86%

    26 July, Thursday

    Time Temperature Precipitation Wind Pressure Humidity
    00:00 +20°C° 0 mm 1 mps 759 mmHg 87%
    01:00 +19°C° 0.1 mm 1 mps 759 mmHg 88%
    02:00 +19°C° 0.1 mm 1 mps 759 mmHg 89%
    03:00 +19°C° 0.1 mm 1 mps 760 mmHg 90%
    04:00 +20°C° 0.2 mm 1 mps 760 mmHg 88%
    05:00 +21°C° 0.2 mm 1 mps 760 mmHg 86%
    06:00 +22°C° 0.2 mm 1 mps 760 mmHg 84%
    07:00 +23°C° 0 mm 1 mps 760 mmHg 75%
    08:00 +25°C° 0 mm 2 mps 760 mmHg 66%
    09:00 +27°C° 0 mm 2 mps 760 mmHg 56%
    10:00 +28°C° 0 mm 2 mps 760 mmHg 50%
    11:00 +30°C° 0 mm 2 mps 759 mmHg 45%
    12:00 +31°C° 0 mm 3 mps 759 mmHg 39%
    13:00 +31°C° 0 mm 3 mps 759 mmHg 39%
    14:00 +31°C° 0 mm 3 mps 759 mmHg 38%
    15:00 +33°C° 0 mm 3 mps 759 mmHg 38%
    16:00 +31°C° 0 mm 2 mps 759 mmHg 42%
    17:00 +30°C° 0 mm 2 mps 759 mmHg 46%
    18:00 +30°C° 0 mm 1 mps 758 mmHg 51%
    19:00 +28°C° 0 mm 1 mps 758 mmHg 57%
    20:00 +26°C° 0 mm 1 mps 758 mmHg 62%
    21:00 +24°C° 0 mm 1 mps 758 mmHg 68%
    22:00 +23°C° 0 mm 1 mps 759 mmHg 71%
    23:00 +23°C° 0 mm 1 mps 759 mmHg 74%

    27 July, Friday

    Time Temperature Precipitation Wind Pressure Humidity
    00:00 +21°C° 0 mm 2 mps 759 mmHg 77%
    01:00 +20°C° 0 mm 2 mps 759 mmHg 78%
    02:00 +20°C° 0 mm 2 mps 759 mmHg 80%
    03:00 +19°C° 0 mm 2 mps 759 mmHg 82%
    04:00 +20°C° 0 mm 2 mps 759 mmHg 79%
    05:00 +21°C° 0 mm 2 mps 759 mmHg 76%
    06:00 +23°C° 0 mm 2 mps 759 mmHg 73%
    07:00 +25°C° 0.1 mm 2 mps 759 mmHg 68%
    08:00 +27°C° 0.1 mm 2 mps 759 mmHg 62%
    09:00 +29°C° 0.1 mm 2 mps 759 mmHg 57%
    10:00 +29°C° 0.7 mm 2 mps 759 mmHg 60%
    11:00 +29°C° 0.7 mm 2 mps 759 mmHg 63%
    12:00 +29°C° 0.7 mm 3 mps 759 mmHg 66%
    13:00 +30°C° 0.4 mm 3 mps 759 mmHg 62%
    14:00 +30°C° 0.4 mm 3 mps 759 mmHg 59%
    15:00 +30°C° 0.4 mm 3 mps 759 mmHg 55%
    16:00 +29°C° 0.2 mm 3 mps 760 mmHg 58%
    17:00 +28°C° 0.2 mm 3 mps 760 mmHg 62%
    18:00 +27°C° 0.2 mm 3 mps 760 mmHg 65%
    19:00 +25°C° 0 mm 3 mps 760 mmHg 69%
    20:00 +24°C° 0 mm 2 mps 761 mmHg 74%
    21:00 +21°C° 0 mm 2 mps 761 mmHg 79%
    22:00 +20°C° 0 mm 2 mps 761 mmHg 75%
    23:00 +19°C° 0 mm 3 mps 762 mmHg 71%
    Show more